Wind_Speed
10 11 10 10 11 11 11 11 11 11 11 11 11 11 11 12 12 12 13 13 13 14 14 14 14 14 15 15 16 15 15 15 14 14 15 14 14 14 15 15 14 14 15
11 11 11 11 11 12 12 12 11 12 12 12 12 12 13 13 13 14 14 14 14 15 15 15 15 15 15 16 15 15 15 15 14 14 14 14 14 15 15 15 15 15 15
12 12 13 13 13 13 13 13 13 13 13 13 13 13 13 13 14 14 14 15 15 15 15 15 16 16 15 15 15 14 14 14 14 14 14 14 14 15 15 15 15 15 15
13 13 13 13 14 14 14 14 14 14 14 14 14 14 14 14 15 15 15 15 16 16 16 16 17 16 15 15 14 14 14 14 14 14 14 15 15 15 14 15 15 16 15
13 13 13 14 15 15 15 15 15 15 15 15 15 15 15 15 15 16 16 16 16 16 16 16 16 16 15 15 15 14 14 14 14 14 14 15 15 15 15 15 16 16 16
13 13 14 14 15 15 15 15 16 16 16 16 16 15 15 16 16 16 17 17 17 17 17 17 16 16 15 15 15 15 15 14 14 14 15 15 16 16 16 16 17 17 17
14 15 15 15 15 15 15 16 17 17 17 17 17 16 16 17 17 18 18 18 18 18 18 17 17 17 17 16 16 15 16 16 15 15 15 16 16 16 16 16 17 18 18
15 15 15 15 15 15 16 17 17 18 18 18 18 18 18 19 19 19 19 19 19 19 18 18 18 18 18 17 17 17 17 17 17 17 17 16 16 16 15 16 17 17 18
15 15 16 16 17 17 17 18 18 19 19 19 19 19 19 19 19 19 19 19 19 19 19 18 18 18 18 17 18 18 18 18 18 18 17 17 16 16 16 16 16 17 18
16 16 17 17 18 18 18 18 18 19 20 20 20 20 20 20 20 20 20 20 20 20 19 19 19 19 18 18 18 19 19 19 19 18 18 18 17 17 17 17 17 18 18
17 17 17 17 18 19 19 19 19 20 20 20 20 21 21 21 22 21 21 21 21 20 20 20 20 19 19 19 19 20 20 20 19 19 19 19 19 19 18 18 19 19 19
17 18 18 18 18 19 19 19 20 20 21 21 21 22 22 23 23 22 23 22 22 21 21 21 21 20 20 20 20 20 21 21 21 21 21 20 20 20 20 20 20 20 20
18 18 18 18 19 20 20 20 21 21 21 21 22 22 23 23 23 23 23 23 22 22 22 22 22 22 22 22 21 21 22 22 22 22 22 22 22 22 22 22 21 21 21
18 18 18 18 19 20 21 21 21 21 21 22 22 23 23 24 23 23 23 23 23 24 24 23 23 23 22 22 23 24 23 23 22 22 22 22 22 23 23 23 23 23 22
18 18 18 19 20 20 20 20 21 22 22 22 22 23 23 23 24 24 24 24 24 25 25 25 25 24 25 24 23 24 25 24 24 24 24 24 24 23 23 24 25 24 24
19 20 20 20 20 20 21 21 21 21 21 22 22 23 23 23 24 24 24 25 25 25 25 25 25 24 25 24 24 24 24 24 24 24 24 24 24 25 25 24 24 25 26
20 21 21 20 21 21 21 21 22 22 22 22 22 23 24 24 24 24 24 25 25 26 26 26 26 25 24 24 25 25 24 24 24 24 25 25 25 24 26 26 26 26 26
21 22 22 21 21 22 23 23 23 23 23 23 24 24 24 24 25 25 26 26 27 27 27 27 27 26 26 26 26 26 26 26 25 25 25 25 25 25 26 26 26 26 27
21 22 22 23 23 23 23 23 24 24 24 24 25 25 25 25 26 27 27 27 27 27 27 27 27 27 27 27 27 27 27 27 26 26 27 27 27 27 28 27 27 27 28
22 23 23 23 23 23 23 23 24 25 25 25 26 26 26 27 27 27 27 27 27 27 27 27 28 28 29 29 29 29 29 28 28 28 29 28 28 28 29 29 28 28 29
23 23 23 23 24 24 24 25 25 26 26 26 26 27 27 28 28 28 28 28 28 28 28 28 29 29 29 30 30 31 30 29 29 30 30 30 29 29 29 29 30 30 30
23 23 23 23 24 25 26 26 26 26 27 27 27 28 28 28 28 29 29 28 28 29 29 29 29 30 30 30 31 32 31 31 31 31 31 31 31 31 31 31 31 32 32
24 23 23 23 24 25 26 27 26 26 27 27 28 29 29 28 28 28 28 29 29 29 29 30 30 30 30 31 31 32 32 32 32 32 32 32 32 32 32 32 32 33 33
24 24 24 25 25 26 26 27 26 26 27 27 27 28 28 28 28 28 28 28 29 29 29 30 30 31 31 31 31 31 31 31 31 32 32 33 34 34 34 34 34 34 33
24 25 25 26 26 26 25 26 26 26 26 27 27 27 27 27 28 28 28 29 29 29 29 30 31 31 31 31 31 31 30 31 31 31 32 33 33 34 34 34 35 35 34
24 25 26 26 26 26 26 26 26 26 26 27 28 28 28 28 28 29 29 30 30 30 30 30 30 30 30 30 30 30 30 30 30 31 31 32 32 32 32 32 33 33 34
Wind_Direction
258 257 258 262 264 266 266 269 268 272 276 278 279 280 281 281 282 281 279 279 281 282 283 284 285 286 285 284 282 281 280 280 279 277 276 273 270 267 267 266 264 263 261
260 259 260 263 265 266 266 269 270 273 274 277 278 282 283 284 286 285 284 283 284 284 284 285 284 283 282 283 283 281 280 279 278 277 274 272 271 270 268 265 263 261 262
263 262 263 265 267 265 266 270 273 276 278 280 282 284 285 286 286 286 286 284 285 286 284 284 282 282 283 283 282 282 281 280 279 276 274 272 271 269 266 264 265 265 264
265 266 266 267 269 268 268 270 272 276 280 282 284 284 284 285 285 286 288 287 288 287 286 284 283 282 281 280 281 281 281 280 276 274 271 269 270 267 265 264 265 264 264
267 267 267 269 270 270 270 270 273 276 277 279 280 282 282 282 283 285 286 287 289 288 287 287 284 282 280 278 279 279 280 280 276 275 272 270 270 270 267 264 263 263 261
270 269 269 272 272 269 268 269 271 274 276 276 278 281 283 282 282 283 284 286 286 286 286 286 284 283 280 279 277 278 278 279 277 276 276 273 271 269 267 266 262 261 261
271 271 271 272 273 269 269 270 271 273 276 277 277 280 282 283 283 283 282 284 285 285 284 283 281 280 280 279 277 277 277 277 278 277 277 276 275 271 266 266 264 261 260
269 269 269 269 271 271 271 272 273 274 276 277 277 278 280 284 284 284 283 284 285 285 284 282 280 278 279 278 276 277 277 276 277 277 277 278 275 271 266 265 263 260 259
269 269 269 270 271 271 272 274 274 275 275 275 277 278 280 283 285 286 284 285 284 283 281 281 281 280 278 277 277 277 277 278 277 276 276 273 270 268 267 266 266 265 260
270 269 271 273 272 272 274 276 276 276 275 275 277 277 279 282 284 286 284 284 283 283 279 279 279 280 278 276 276 277 278 278 278 276 275 271 268 267 266 267 267 266 262
273 272 273 273 273 273 275 277 277 277 277 277 277 277 279 282 284 284 286 285 284 282 281 281 281 281 279 277 276 276 277 277 277 276 273 271 269 266 264 265 266 265 263
278 276 275 273 274 274 276 279 280 279 278 277 277 278 279 282 282 282 285 285 284 282 281 281 282 282 280 278 276 276 276 276 275 275 272 271 269 266 265 264 264 264 264
279 278 276 275 274 274 277 279 280 279 277 277 278 279 281 283 281 281 282 284 284 283 281 282 282 282 280 277 277 277 277 275 274 273 272 270 269 267 266 265 263 263 265
278 278 276 276 276 276 277 278 278 278 278 279 279 279 281 283 282 281 282 282 281 282 282 283 283 281 280 278 276 276 277 277 275 273 272 270 268 267 267 266 265 264 264
280 280 280 279 279 278 278 278 277 277 278 279 279 278 280 282 282 283 283 283 282 282 283 284 283 281 280 279 278 276 276 275 274 273 271 270 267 266 267 267 267 265 264
279 281 282 281 280 279 279 279 279 277 277 279 280 280 281 282 282 284 284 283 283 282 280 282 283 282 280 278 277 278 277 275 273 272 270 269 267 265 265 268 268 266 265
277 280 281 280 280 280 280 281 280 279 279 281 282 282 282 283 283 285 286 286 285 284 281 281 282 282 280 279 277 277 276 274 274 272 270 268 267 267 267 267 268 269 266
276 277 278 279 280 280 281 281 281 281 281 282 283 283 283 283 284 285 286 287 287 285 283 281 281 280 280 280 278 276 275 273 272 270 269 268 266 268 268 267 267 268 266
278 277 277 277 278 279 280 281 282 282 283 284 286 286 286 284 284 284 285 286 287 286 284 282 281 280 280 280 280 277 275 273 271 269 268 268 267 268 268 268 267 267 265
279 279 279 278 277 277 278 280 282 283 284 285 286 287 287 286 285 285 285 285 286 285 283 282 281 280 279 278 278 277 275 273 271 269 268 269 269 270 269 269 268 268 267
280 280 279 277 277 277 278 280 283 284 284 284 286 286 286 286 285 285 285 286 286 285 284 282 282 281 281 280 279 278 276 273 270 268 268 268 268 270 271 270 270 271 269
282 280 279 278 277 278 279 281 283 284 284 285 286 287 287 286 286 285 285 286 286 286 284 283 282 282 282 280 279 277 275 273 270 269 268 268 269 271 272 272 271 271 271
281 279 279 278 278 280 279 281 283 284 285 285 286 287 287 286 285 285 285 285 285 285 284 283 282 282 281 280 279 277 275 273 271 270 270 269 269 271 272 272 272 272 271
282 281 280 280 280 282 282 281 282 285 286 288 288 287 286 285 285 285 285 285 286 286 285 284 282 282 282 280 279 278 277 274 272 271 271 271 271 271 271 271 271 271 270
284 284 283 283 283 283 284 283 283 286 288 289 290 288 287 286 286 285 286 286 286 287 287 285 284 281 281 280 278 278 277 277 275 274 273 273 273 272 272 272 271 269 268
284 284 284 283 284 283 283 284 285 287 288 290 291 289 287 286 286 286 286 287 287 287 287 286 285 283 281 278 277 278 278 279 278 275 273 273 273 273 273 273 272 269 267
Height
5847 5847 5848 5848 5848 5847 5847 5847 5846 5846 5846 5845 5844 5844 5843 5842 5841 5840 5840 5839 5838 5837 5836 5835 5834 5832 5832 5830 5829 5828 5827 5827 5826 5825 5825 5824 5824 5823 5823 5823 5823 5823 5823
5844 5844 5845 5845 5845 5845 5844 5844 5844 5843 5843 5842 5841 5841 5840 5839 5838 5837 5836 5835 5834 5833 5832 5831 5830 5828 5827 5826 5825 5824 5823 5822 5821 5821 5821 5820 5820 5819 5819 5819 5819 5819 5819
5841 5842 5842 5842 5842 5842 5841 5841 5841 5840 5840 5839 5838 5837 5837 5836 5835 5834 5833 5832 5830 5829 5828 5827 5825 5824 5822 5821 5820 5819 5818 5817 5817 5816 5816 5816 5816 5815 5815 5814 5814 5814 5814
5838 5838 5838 5838 5838 5838 5838 5838 5837 5837 5836 5836 5835 5834 5833 5832 5831 5830 5829 5827 5826 5825 5823 5822 5820 5819 5818 5817 5816 5815 5814 5813 5812 5811 5811 5811 5811 5811 5811 5811 5810 5810 5810
5835 5835 5835 5835 5835 5834 5834 5834 5834 5834 5833 5832 5831 5830 5829 5828 5827 5826 5825 5823 5822 5820 5819 5817 5815 5814 5813 5812 5811 5810 5809 5808 5807 5807 5806 5806 5805 5805 5806 5806 5806 5806 5805
5832 5832 5831 5831 5831 5831 5831 5830 5830 5830 5829 5829 5828 5826 5825 5824 5823 5822 5820 5819 5817 5816 5814 5812 5811 5810 5809 5808 5807 5806 5805 5803 5803 5802 5801 5801 5800 5800 5800 5800 5800 5801 5801
5828 5828 5828 5827 5827 5827 5827 5826 5826 5826 5825 5824 5823 5822 5821 5820 5819 5817 5816 5814 5813 5811 5809 5808 5806 5805 5804 5803 5802 5801 5800 5799 5798 5797 5796 5795 5795 5795 5794 5794 5794 5795 5795
5824 5823 5823 5823 5823 5822 5822 5822 5821 5821 5820 5820 5819 5818 5817 5815 5814 5812 5811 5809 5808 5806 5804 5803 5801 5800 5799 5798 5797 5796 5795 5794 5793 5792 5791 5790 5789 5789 5789 5789 5789 5789 5790
5819 5819 5819 5818 5818 5818 5817 5817 5816 5816 5815 5814 5814 5813 5812 5811 5809 5808 5806 5804 5803 5801 5799 5798 5796 5795 5794 5793 5792 5791 5789 5788 5787 5786 5785 5784 5784 5783 5783 5783 5783 5784 5784
5815 5814 5814 5813 5813 5813 5812 5812 5811 5811 5810 5809 5808 5808 5807 5806 5804 5802 5801 5799 5797 5795 5794 5792 5791 5790 5788 5787 5786 5785 5784 5783 5782 5781 5780 5779 5778 5778 5778 5778 5778 5778 5779
5810 5810 5809 5809 5808 5807 5807 5806 5806 5805 5804 5804 5803 5802 5801 5800 5798 5797 5795 5793 5791 5790 5788 5787 5785 5784 5782 5781 5780 5779 5778 5777 5776 5775 5774 5773 5773 5772 5772 5773 5773 5773 5773
5805 5804 5804 5803 5803 5802 5802 5801 5800 5800 5799 5798 5797 5796 5795 5794 5792 5791 5789 5787 5785 5784 5782 5781 5779 5778 5776 5775 5774 5773 5772 5771 5770 5768 5768 5767 5767 5767 5767 5767 5767 5767 5767
5800 5799 5798 5798 5797 5797 5796 5795 5795 5794 5793 5792 5791 5790 5789 5787 5786 5785 5783 5781 5779 5777 5776 5774 5773 5771 5770 5769 5767 5766 5765 5764 5763 5762 5761 5761 5761 5761 5761 5761 5761 5761 5761
5794 5794 5793 5792 5791 5791 5790 5789 5789 5788 5787 5786 5785 5783 5782 5781 5779 5778 5776 5774 5772 5771 5769 5768 5766 5764 5763 5762 5760 5759 5758 5757 5756 5755 5755 5754 5754 5754 5754 5754 5754 5755 5755
5789 5788 5787 5787 5786 5785 5784 5783 5782 5781 5780 5779 5778 5777 5775 5774 5773 5771 5769 5767 5766 5764 5762 5760 5759 5757 5756 5755 5753 5752 5751 5750 5749 5748 5748 5747 5747 5747 5747 5747 5748 5748 5748
5783 5782 5781 5781 5780 5779 5778 5777 5776 5775 5773 5772 5771 5770 5768 5767 5766 5764 5762 5760 5758 5757 5755 5753 5752 5750 5749 5748 5746 5745 5744 5742 5741 5740 5740 5740 5740 5740 5740 5740 5740 5740 5740
5777 5776 5776 5775 5774 5773 5772 5771 5770 5768 5767 5766 5764 5763 5762 5760 5759 5757 5755 5753 5751 5749 5747 5746 5744 5743 5741 5740 5739 5738 5736 5735 5734 5733 5732 5732 5733 5733 5733 5733 5733 5733 5733
5771 5770 5769 5768 5768 5767 5766 5764 5763 5762 5761 5759 5758 5756 5754 5753 5751 5749 5748 5745 5743 5741 5739 5738 5736 5735 5733 5732 5731 5730 5729 5728 5727 5726 5725 5725 5725 5725 5725 5725 5725 5725 5725
5764 5763 5763 5762 5761 5760 5759 5757 5756 5755 5753 5752 5751 5749 5747 5745 5744 5742 5739 5737 5735 5733 5731 5729 5728 5726 5725 5724 5723 5721 5720 5719 5719 5718 5718 5718 5717 5717 5717 5716 5716 5717 5717
5757 5756 5755 5754 5753 5752 5751 5750 5749 5747 5746 5745 5743 5741 5739 5737 5735 5733 5731 5729 5727 5724 5722 5721 5719 5718 5717 5715 5714 5713 5712 5711 5710 5710 5709 5709 5709 5709 5708 5708 5708 5708 5708
5750 5749 5748 5747 5746 5745 5743 5742 5741 5740 5738 5736 5734 5733 5731 5729 5726 5724 5722 5720 5718 5716 5714 5712 5711 5709 5708 5706 5705 5703 5702 5702 5701 5701 5700 5700 5700 5700 5699 5699 5699 5699 5698
5743 5741 5740 5739 5738 5737 5736 5734 5733 5731 5729 5728 5726 5724 5722 5719 5717 5715 5713 5711 5709 5707 5705 5703 5701 5700 5698 5697 5695 5694 5693 5692 5692 5691 5691 5690 5691 5691 5690 5690 5689 5689 5689
5735 5734 5732 5731 5730 5729 5727 5726 5724 5723 5721 5719 5717 5715 5712 5710 5708 5706 5704 5702 5700 5698 5696 5694 5692 5690 5689 5687 5686 5684 5683 5682 5681 5681 5681 5681 5681 5681 5680 5680 5679 5679 5678
5727 5726 5724 5723 5722 5720 5719 5717 5716 5714 5712 5710 5707 5705 5703 5701 5699 5697 5695 5693 5691 5689 5687 5685 5683 5681 5679 5677 5676 5674 5673 5672 5671 5670 5670 5670 5670 5670 5669 5669 5668 5668 5668
5719 5717 5716 5714 5713 5711 5710 5708 5707 5705 5703 5701 5698 5696 5694 5692 5690 5688 5686 5684 5682 5680 5677 5675 5673 5671 5669 5668 5666 5664 5663 5663 5662 5660 5660 5659 5659 5659 5658 5657 5657 5657 5656
5711 5709 5707 5705 5704 5702 5701 5699 5698 5696 5694 5692 5689 5687 5685 5683 5681 5679 5677 5675 5673 5670 5667 5665 5663 5661 5659 5657 5656 5655 5654 5653 5652 5650 5649 5649 5648 5648 5647 5646 5646 5645 5645